This is the latest recevied weather packets stored in our database for station/object SV2RIM-2. If no packets are shown the sender has not sent any weather packets the latest 10 day(s).
| Time | Temp. | Humidity | Pressure | Rain* | Wind** | Luminosity | Snow |
|---|---|---|---|---|---|---|---|
| 1788116418 | 27.22° C | 49% | 1016 hPa | - | - | - | - |
| 1788115818 | 27.22° C | 49% | 1016 hPa | - | - | - | - |
| 1788115219 | 27.22° C | 48% | 1016 hPa | - | - | - | - |
| 1788114618 | 27.22° C | 48% | 1015.8 hPa | - | - | - | - |
| 1788114019 | 27.78° C | 47% | 1015.7 hPa | - | - | - | - |
| 1788113419 | 28.33° C | 45% | 1015.5 hPa | - | - | - | - |
| 1788112818 | 28.89° C | 44% | 1015.3 hPa | - | - | - | - |
| 1788112219 | 28.89° C | 42% | 1015.1 hPa | - | - | - | - |
| 1788111618 | 29.44° C | 42% | 1014.9 hPa | - | - | - | - |
| 1788111019 | 29.44° C | 41% | 1014.7 hPa | - | - | - | - |
| 1788110419 | 30° C | 40% | 1014.7 hPa | - | - | - | - |
| 1788109819 | 30° C | 40% | 1014.4 hPa | - | - | - | - |
| 1788109218 | 30° C | 40% | 1014.3 hPa | - | - | - | - |
| 1788108618 | 30.56° C | 40% | 1014.3 hPa | - | - | - | - |
| 1788108019 | 30.56° C | 40% | 1014.2 hPa | - | - | - | - |
| 1788107419 | 30.56° C | 39% | 1014.2 hPa | - | - | - | - |
| 1788106819 | 31.11° C | 39% | 1014.2 hPa | - | - | - | - |
| 1788106219 | 31.11° C | 39% | 1014.2 hPa | - | - | - | - |
| 1788105619 | 31.67° C | 39% | 1014.4 hPa | - | - | - | - |
| 1788105018 | 32.22° C | 39% | 1014.3 hPa | - | - | - | - |
| 1788104419 | 32.78° C | 39% | 1014.2 hPa | - | - | - | - |
| 1788103819 | 34.44° C | 38% | 1014.2 hPa | - | - | - | - |
| 1788103219 | 35° C | 38% | 1014.2 hPa | - | - | - | - |
| 1788102618 | 35° C | 38% | 1014.2 hPa | - | - | - | - |
| 1788102019 | 35.56° C | 38% | 1014.2 hPa | - | - | - | - |
* Rain since midnight (hover to see other rain measurements)
** Current wind speed in m/s (hover to see current wind gust speed)